Station HHLO1 - Huron Harbor Light, OH Image indicating link to RSS feed of recent meteorological observations for station HHLO1


Conditions at HHLO1 as of
(2:00 pm EDT)
1800 GMT on 04/19/2024:
     

Click on the graph icon in the table below to see a time series plot of the last five days of that observation.

5-day plot - Wind Direction Wind Direction (WDIR): W ( 280 deg true )
5-day plot - Wind Speed Wind Speed (WSPD): 9.9 kts
5-day plot - Wind Gust Wind Gust (GST): 15.9 kts
5-day plot - Atmospheric Pressure Atmospheric Pressure (PRES):29.93 in
5-day plot - Pressure Tendency Pressure Tendency (PTDY):+0.01 in ( Rising )
5-day plot - Air Temperature Air Temperature (ATMP): 55.8 °F
5-day plot - Wind Speed at 10 Meters Wind Speed at 10 meters (WSPD10M): 9.7 kts
5-day plot - Wind Speed at 20 Meters Wind Speed at 20 meters (WSPD20M): 11.7 kts
5-day plot -  Wind Speed, Wind Gust and Atmospheric Pressure Combined plot of Wind Speed, Gust, and Air Pressure
Previous observations
TIME
(EDT)
5-day plot - Wind Direction
WDIR
 
5-day plot - Wind Speed
WSPD
kts
5-day plot - Wind Gust
GST
kts
5-day plot - Wave Height
WVHT
ft
5-day plot - Dominant Wave Period
DPD
sec
5-day plot - Average Wave Period
APD
sec
5-day plot - Mean Wave Direction
MWD
 
5-day plot - Atmospheric Pressure
PRES
in
5-day plot - Pressure Tendency
PTDY
in
5-day plot - Air Temperature
ATMP
°F
5-day plot - Water Temperature
WTMP
°F
5-day plot - Dew Point
DEWP
°F
5-day plot - Salinity
SAL
psu
5-day plot - Visibility
VIS
nmi
5-day plot - Tide (above MLLW)
TIDE
ft
2024-04-19 01:50 pm W 11.1 15.0----29.93- 55.8-----
2024-04-19 01:40 pmWNW 8.9 14.0----29.93- 55.2-----
2024-04-19 01:30 pmWNW 9.9 14.0----29.93- 54.5-----
2024-04-19 01:20 pm NW 11.1 14.0----29.94- 54.1-----
2024-04-19 01:10 pm NW 9.9 13.0----29.94- 54.7-----
2024-04-19 01:00 pmWNW 9.9 15.0----29.94+0.06 53.2-----
2024-04-19 12:50 pm NW 11.1 15.9----29.94- 52.9-----
2024-04-19 12:40 pmWNW 14.0 18.1----29.94- 52.2-----
2024-04-19 12:30 pmWNW 13.0 18.1----29.94- 52.0-----
2024-04-19 12:20 pmWNW 13.0 17.1----29.94- 51.8-----
2024-04-19 12:10 pmWNW 14.0 19.0----29.93- 52.0-----
2024-04-19 12:00 pmWNW 14.0 19.0----29.93+0.09 51.8-----
2024-04-19 11:50 amWNW 15.0 18.1----29.93- 52.0-----
2024-04-19 11:40 amWNW 11.1 17.1----29.93- 52.2-----
2024-04-19 11:30 am W 12.0 15.0----29.93- 52.2-----
2024-04-19 11:20 amWNW 13.0 17.1----29.92- 52.3-----
2024-04-19 11:10 am NW 13.0 15.9----29.92- 52.0-----
2024-04-19 11:00 amWNW 8.9 12.0----29.92+0.13 51.8-----
2024-04-19 10:50 amWNW 9.9 15.0----29.92- 51.6-----
2024-04-19 10:40 am NW 12.0 17.1----29.91- 51.3-----
2024-04-19 10:30 amWNW 9.9 18.1----29.90- 50.7-----
2024-04-19 10:20 am NW 15.0 22.0----29.90- 50.5-----
2024-04-19 10:10 am NW 18.1 22.9----29.89- 50.7-----
2024-04-19 10:00 am NW 17.1 25.1----29.88+0.11 50.7-----
2024-04-19 09:50 am NW 19.0 26.0----29.88- 51.1-----
2024-04-19 09:40 am NW 15.9 25.1----29.87- 52.2-----
2024-04-19 09:30 amWNW 17.1 22.9----29.86- 52.3-----
2024-04-19 09:20 am W 7.0 9.9----29.85- 52.0-----
2024-04-19 09:10 amWNW 7.0 13.0----29.85- 51.8-----
2024-04-19 09:00 amWNW 12.0 15.9----29.84+0.06 51.6-----
2024-04-19 08:50 am W 8.9 12.0----29.83- 51.6-----
2024-04-19 08:40 am NW 6.0 9.9----29.82- 51.4-----
2024-04-19 08:30 amWNW 5.1 7.0----29.81- 51.4-----
2024-04-19 08:20 am NW 4.1 4.1----29.80- 51.4-----
2024-04-19 08:10 am NW 2.9 4.1----29.80- 51.3-----
2024-04-19 08:00 am N 2.9 4.1----29.79+0.01 51.6-----
2024-04-19 07:50 am NE 4.1 5.1----29.79- 51.6-----
2024-04-19 07:40 am E 5.1 8.9----29.79- 51.4-----
2024-04-19 07:30 am E 5.1 7.0----29.79- 51.6-----
2024-04-19 07:20 am E 8.0 8.9----29.78- 51.6-----
2024-04-19 07:10 am E 7.0 8.9----29.77- 51.4-----
2024-04-19 07:00 am E 7.0 11.1----29.77+0.05 51.4-----
2024-04-19 06:50 am E 9.9 12.0----29.76- 51.6-----
2024-04-19 06:40 amENE 7.0 8.9----29.77- 52.2-----
2024-04-19 06:30 am E 8.0 9.9----29.77- 52.3-----
2024-04-19 06:20 am E 8.0 9.9----29.77- 52.5-----
2024-04-19 06:10 amESE 5.1 7.0----29.78- 52.7-----
2024-04-19 06:00 amESE 6.0 8.9----29.78+0.02 52.9-----
2024-04-19 05:50 am E 6.0 8.9----29.76- 53.1-----
2024-04-19 05:40 amNNE 6.0 8.9----29.76- 53.6-----
2024-04-19 05:30 am N 5.1 6.0----29.76- 54.5-----
2024-04-19 05:20 am NW 2.9 7.0----29.77- 55.0-----
2024-04-19 05:10 am NW 6.0 9.9----29.77- 55.6-----
2024-04-19 05:00 am NW 7.0 13.0----29.78-0.02 56.1-----
2024-04-19 04:50 am NW 11.1 15.0----29.78- 58.5-----
2024-04-19 04:40 amWNW 13.0 18.1----29.79- 61.5-----
2024-04-19 04:30 amWNW 13.0 25.1----29.79- 62.8-----
2024-04-19 04:20 am W 17.1 26.0----29.78- 63.0-----
2024-04-19 04:10 am W 22.9 28.0----29.77- 62.8-----
2024-04-19 04:00 amSSE 12.0 15.0----29.72-0.12 63.1-----
2024-04-19 03:50 amSSE 9.9 15.0----29.72- 63.0-----
2024-04-19 03:40 amSSE 8.9 11.1----29.73- 63.0-----
2024-04-19 03:30 amSSE 8.9 11.1----29.74- 63.0-----
2024-04-19 03:20 amSSE 7.0 8.9----29.74- 63.0-----
2024-04-19 03:10 amSSE 7.0 11.1----29.75- 63.0-----
2024-04-19 03:00 amSSE 8.9 12.0----29.76-0.12 62.8-----
2024-04-19 02:50 am SE 8.0 9.9----29.77- 62.6-----
2024-04-19 02:40 am SE 7.0 11.1----29.78- 61.5-----
2024-04-19 02:30 amESE 6.0 8.0----29.78- 58.5-----
2024-04-19 02:20 am E 7.0 9.9----29.79- 56.8-----
2024-04-19 02:10 am E 8.0 9.9----29.79- 55.4-----
2024-04-19 02:00 am E 7.0 8.9----29.80-0.11 55.6-----
2024-04-19 01:50 am E 8.0 8.9----29.81- 54.9-----
2024-04-19 01:40 am E 7.0 8.0----29.82- 55.4-----
2024-04-19 01:30 am E 7.0 8.0----29.83- 55.0-----
2024-04-19 01:20 amESE 5.1 7.0----29.83- 55.0-----
2024-04-19 01:10 amESE 5.1 6.0----29.84- 55.2-----
2024-04-19 01:00 am E 6.0 7.0----29.84-0.08 55.0-----
2024-04-19 12:50 amESE 5.1 6.0----29.85- 55.0-----
2024-04-19 12:40 amESE 5.1 6.0----29.85- 55.0-----
2024-04-19 12:30 amESE 5.1 7.0----29.85- 54.7-----
2024-04-19 12:20 amESE 5.1 7.0----29.87- 54.9-----
2024-04-19 12:10 am E 6.0 7.0----29.87- 54.9-----
2024-04-19 12:00 am E 6.0 8.0----29.88-0.04 54.9-----
2024-04-18 11:50 pmESE 7.0 8.0----29.88- 54.9-----
2024-04-18 11:40 pmESE 5.1 8.0----29.89- 54.3-----
2024-04-18 11:30 pm E 6.0 8.0----29.89- 54.3-----
2024-04-18 11:20 pm E 7.0 8.0----29.89- 54.1-----
2024-04-18 11:10 pm E 6.0 7.0----29.91- 54.0-----
2024-04-18 11:00 pm E 6.0 7.0----29.91-0.01 54.0-----
2024-04-18 10:50 pm E 7.0 9.9----29.92- 54.1-----
2024-04-18 10:40 pm E 8.9 8.9----29.92- 54.0-----
2024-04-18 10:30 pm E 6.0 8.0----29.92- 54.0-----
2024-04-18 10:20 pmESE 7.0 9.9----29.92- 54.0-----
2024-04-18 10:10 pm E 9.9 12.0----29.91- 54.1-----
2024-04-18 10:00 pm E 9.9 12.0----29.92-0.03 54.1-----
2024-04-18 09:50 pmENE 11.1 12.0----29.92- 53.6-----
2024-04-18 09:40 pm NE 11.1 12.0----29.92- 53.6-----
2024-04-18 09:30 pmENE 8.9 9.9----29.92- 54.3-----
2024-04-18 09:20 pmENE 8.9 9.9----29.91- 54.9-----
2024-04-18 09:10 pm E 8.9 8.9----29.91- 55.0-----
2024-04-18 09:00 pm E 8.9 8.9----29.92-0.05 55.2-----
2024-04-18 08:50 pm E 8.0 8.9----29.91- 55.4-----
2024-04-18 08:40 pm E 8.0 8.9----29.91- 55.0-----
2024-04-18 08:30 pm E 9.9 11.1----29.91- 54.9-----
2024-04-18 08:20 pm E 8.0 8.0----29.92- 55.0-----
2024-04-18 08:10 pm E 8.0 12.0----29.92- 55.2-----
2024-04-18 08:00 pm E 9.9 14.0----29.92-0.07 55.2-----
2024-04-18 07:50 pm E 13.0 14.0----29.91- 54.9-----
2024-04-18 07:40 pm E 13.0 14.0----29.93- 54.9-----
2024-04-18 07:30 pm E 12.0 15.0----29.94- 55.2-----
2024-04-18 07:20 pm E 14.0 15.9----29.94- 55.0-----
2024-04-18 07:10 pm E 14.0 17.1----29.94- 55.0-----
2024-04-18 07:00 pm E 13.0 17.1----29.95-0.05 54.9-----
2024-04-18 06:50 pm E 14.0 15.0----29.94- 54.7-----
2024-04-18 06:40 pm E 12.0 14.0----29.96- 54.3-----
2024-04-18 06:30 pm E 11.1 13.0----29.96- 54.3-----
2024-04-18 06:20 pm E 12.0 13.0----29.95- 54.1-----
2024-04-18 06:10 pm E 9.9 11.1----29.97- 54.1-----
2024-04-18 06:00 pm E 8.9 12.0----29.97-0.04 54.1-----
2024-04-18 05:50 pm E 9.9 11.1----29.97- 54.1-----
2024-04-18 05:40 pm E 8.9 9.9----29.97- 54.1-----
2024-04-18 05:30 pm E 7.0 8.9----29.97- 54.5-----
2024-04-18 05:20 pm E 7.0 8.0----29.98- 54.5-----
2024-04-18 05:10 pm E 6.0 8.0----29.98- 54.5-----
2024-04-18 05:00 pmENE 7.0 8.0----29.99-0.03 54.7-----
2024-04-18 04:50 pmENE 7.0 8.0----29.99- 55.0-----
2024-04-18 04:40 pmENE 7.0 8.9----29.99- 54.1-----
2024-04-18 04:30 pm E 8.0 8.9----29.98- 53.6-----
2024-04-18 04:20 pm E 8.0 8.9----29.99- 53.8-----
2024-04-18 04:10 pm E 7.0 8.0----30.00- 54.0-----
2024-04-18 04:00 pmENE 7.0 8.0----30.00-0.01 54.1-----
2024-04-18 03:50 pmENE 7.0 8.0----30.00- 54.1-----
2024-04-18 03:40 pmENE 7.0 8.0----30.01- 54.0-----
2024-04-18 03:30 pmENE 8.0 8.9----30.01- 54.1-----
2024-04-18 03:20 pmENE 7.0 8.9----30.01- 54.1-----
2024-04-18 03:10 pmENE 7.0 9.9----30.01- 54.0-----
2024-04-18 03:00 pmENE 8.9 8.9----30.01-0.01 54.0-----
2024-04-18 02:50 pmENE 8.0 8.9----30.01- 54.1-----
2024-04-18 02:40 pmENE 7.0 8.9----30.02- 54.1-----
2024-04-18 02:30 pmENE 8.0 8.0----30.02- 53.8-----
2024-04-18 02:20 pmENE 8.0 8.9----30.02- 53.8-----
2024-04-18 02:10 pmENE 8.0 8.9----30.02- 53.8-----
2024-04-18 02:00 pm NE 7.0 9.9----30.02+0.00 53.4-----
2024-04-18 01:50 pmENE 8.9 9.9----30.01- 53.4-----